TimeCST,TemperatureF,Dew PointF,Humidity,Sea Level PressureIn,VisibilityMPH,Wind Direction,Wind SpeedMPH,Gust SpeedMPH,PrecipitationIn,Events,Conditions,WindDirDegrees,DateUTC
12:54 AM,45.0,45.0,100,30.20,4.0,NW,3.5,-,N/A,,Clear,310,2012-11-21 06:54:00
1:38 AM,44.6,44.6,100,30.19,1.8,Calm,Calm,-,N/A,,Clear,0,2012-11-21 07:38:00
1:48 AM,44.6,44.6,100,30.20,0.5,Calm,Calm,-,N/A,Fog,Fog,0,2012-11-21 07:48:00
1:54 AM,44.1,44.1,100,30.20,0.2,Calm,Calm,-,N/A,Fog,Fog,0,2012-11-21 07:54:00
2:49 AM,41.0,41.0,100,30.21,0.5,NNW,3.5,-,N/A,Fog,Fog,330,2012-11-21 08:49:00
2:54 AM,39.9,39.9,100,30.22,0.5,Calm,Calm,-,N/A,Fog,Fog,0,2012-11-21 08:54:00
3:02 AM,39.2,39.2,100,30.22,0.2,WNW,3.5,-,N/A,Fog,Fog,300,2012-11-21 09:02:00
3:09 AM,42.8,42.8,100,30.22,1.0,NW,3.5,-,N/A,,Mist,310,2012-11-21 09:09:00
3:17 AM,42.8,42.8,100,30.22,1.5,NW,3.5,-,N/A,,Partly Cloudy,310,2012-11-21 09:17:00
3:31 AM,42.8,42.8,100,30.21,1.0,Calm,Calm,-,N/A,,Mist,0,2012-11-21 09:31:00
3:36 AM,42.8,42.8,100,30.21,0.5,Calm,Calm,-,N/A,Fog,Fog,0,2012-11-21 09:36:00
3:43 AM,37.4,37.4,100,30.21,0.2,Calm,Calm,-,N/A,Fog,Fog,0,2012-11-21 09:43:00
3:51 AM,39.2,39.2,100,30.21,0.2,Calm,Calm,-,N/A,Fog,Fog,0,2012-11-21 09:51:00
3:54 AM,37.9,37.9,100,30.22,0.2,Calm,Calm,-,N/A,Fog,Fog,0,2012-11-21 09:54:00
4:11 AM,35.6,35.6,100,30.21,0.2,Calm,Calm,-,N/A,Fog,Fog,0,2012-11-21 10:11:00
4:54 AM,37.0,37.0,100,30.22,0.2,Calm,Calm,-,N/A,Fog,Fog,0,2012-11-21 10:54:00
5:54 AM,37.0,37.0,100,30.24,0.2,Calm,Calm,-,N/A,Fog,Fog,0,2012-11-21 11:54:00
6:54 AM,39.9,39.9,100,30.26,0.2,West,3.5,-,N/A,Fog,Fog,280,2012-11-21 12:54:00
7:54 AM,39.9,39.9,100,30.27,0.2,Calm,Calm,-,N/A,Fog,Fog,0,2012-11-21 13:54:00
8:54 AM,41.0,41.0,100,30.28,0.2,Calm,Calm,-,N/A,Fog,Fog,0,2012-11-21 14:54:00
9:54 AM,43.0,43.0,100,30.29,0.2,Calm,Calm,-,N/A,Fog,Fog,0,2012-11-21 15:54:00
10:11 AM,44.6,44.6,100,30.28,0.5,SW,3.5,-,N/A,Fog,Fog,220,2012-11-21 16:11:00
10:21 AM,46.4,46.4,100,30.27,1.5,SW,3.5,-,N/A,,Overcast,220,2012-11-21 16:21:00
10:31 AM,46.4,46.4,100,30.27,2.5,SSW,3.5,-,N/A,,Scattered Clouds,200,2012-11-21 16:31:00
10:42 AM,48.2,48.2,100,30.27,4.0,SSW,4.6,-,N/A,,Partly Cloudy,210,2012-11-21 16:42:00
10:54 AM,48.9,48.9,100,30.27,4.0,Variable,3.5,-,N/A,,Clear,0,2012-11-21 16:54:00
11:54 AM,55.9,52.0,87,30.25,6.0,SW,5.8,-,N/A,,Clear,230,2012-11-21 17:54:00
12:54 PM,57.0,51.1,81,30.24,6.0,SSW,6.9,-,N/A,,Haze,200,2012-11-21 18:54:00
1:54 PM,57.9,50.0,75,30.22,6.0,SW,6.9,-,N/A,,Haze,230,2012-11-21 19:54:00
2:54 PM,57.9,50.0,75,30.21,7.0,SW,6.9,-,N/A,,Clear,220,2012-11-21 20:54:00
3:54 PM,57.0,50.0,77,30.19,7.0,SSW,8.1,-,N/A,,Clear,200,2012-11-21 21:54:00
4:54 PM,53.1,48.0,83,30.19,5.0,SW,3.5,-,N/A,,Haze,220,2012-11-21 22:54:00
5:54 PM,50.0,48.0,93,30.19,4.0,Calm,Calm,-,N/A,,Clear,0,2012-11-21 23:54:00
6:54 PM,48.0,46.9,96,30.19,5.0,South,5.8,-,N/A,,Clear,190,2012-11-22 00:54:00
7:54 PM,48.9,46.9,93,30.19,5.0,SSW,8.1,-,N/A,,Clear,210,2012-11-22 01:54:00
8:54 PM,46.9,46.0,97,30.19,5.0,South,6.9,-,N/A,,Clear,190,2012-11-22 02:54:00
9:54 PM,46.9,46.0,97,30.18,5.0,South,8.1,-,0.01,,Clear,180,2012-11-22 03:54:00
10:54 PM,46.9,45.0,93,30.17,5.0,South,8.1,-,N/A,,Clear,180,2012-11-22 04:54:00
11:54 PM,45.0,44.1,97,30.16,4.0,South,8.1,-,N/A,,Clear,180,2012-11-22 05:54:00